This is the latest recevied weather packets stored in our database for station/object KJ5JYX. If no packets are shown the sender has not sent any weather packets the latest 10 day(s).
| Time | Temp. | Humidity | Pressure | Rain* | Wind** | Luminosity | Snow |
|---|---|---|---|---|---|---|---|
| 1778081300 | 14.44° C | 99% | 1014.9 hPa | 4.83 mm | - | 6 W/m² | - |
| 1778080997 | 14.44° C | 99% | 1014.8 hPa | 1.27 mm | - | 6 W/m² | - |
| 1778080696 | 14.44° C | 99% | 1014.6 hPa | 0 mm | - | 9 W/m² | - |
| 1778080392 | 15° C | 99% | 1014.4 hPa | 0 mm | - | 10 W/m² | - |
| 1778080089 | 15° C | 99% | 1014.4 hPa | 1.78 mm | - | 9 W/m² | - |
| 1778079786 | 15° C | 99% | 1014 hPa | 10.67 mm | - | 20 W/m² | - |
| 1778079483 | 15° C | 98% | 1014.1 hPa | 68.33 mm | - | 26 W/m² | - |
| 1778079179 | 15° C | 98% | 1014.3 hPa | 106.93 mm | - | 25 W/m² | - |
| 1778078877 | 16.11° C | 97% | 1014.2 hPa | 74.42 mm | - | 16 W/m² | - |
| 1778078574 | 16.11° C | 96% | 1016.4 hPa | 27.69 mm | - | 1 W/m² | - |
| 1778078272 | 16.11° C | 95% | 1014.7 hPa | 9.65 mm | - | 2 W/m² | - |
| 1778077968 | 16.67° C | 94% | 1013.5 hPa | 3.05 mm | - | 4 W/m² | - |
| 1778077667 | 16.67° C | 94% | 1011.2 hPa | 0 mm | - | 9 W/m² | - |
| 1778077365 | 16.67° C | 93% | 1012 hPa | 0 mm | - | 8 W/m² | - |
| 1778077063 | 16.67° C | 93% | 1012.8 hPa | 0 mm | - | 6 W/m² | - |
| 1778076761 | 17.22° C | 93% | 1012.6 hPa | 0 mm | - | 6 W/m² | - |
| 1778076458 | 17.22° C | 93% | 1012.7 hPa | 0 mm | - | 5 W/m² | - |
| 1778076155 | 17.78° C | 93% | 1012.5 hPa | 0 mm | - | 6 W/m² | - |
| 1778075851 | 17.78° C | 94% | 1012.1 hPa | 0 mm | - | 5 W/m² | - |
| 1778075548 | 18.33° C | 94% | 1012.2 hPa | 0 mm | - | 6 W/m² | - |
| 1778075245 | 18.89° C | 95% | 1012.3 hPa | 0 mm | - | 7 W/m² | - |
| 1778074941 | 18.89° C | 96% | 1011.5 hPa | 0 mm | - | 8 W/m² | - |
| 1778074639 | 19.44° C | 97% | 1011.3 hPa | 0 mm | - | 12 W/m² | - |
| 1778074335 | 20° C | 97% | 1011 hPa | 0 mm | - | 25 W/m² | - |
| 1778074032 | 20.56° C | 97% | 1011.2 hPa | 0 mm | - | 43 W/m² | - |
* Rain latest hour (hover to see other rain measurements)
** Current wind speed in m/s (hover to see current wind gust speed)